User: anonymous   Login
Location: Hurecourt
(47.9030°N, 6.0653°E)
Time: 00:19:05
(UTC+00:00)
Language:

Cosmos 2221 Rocket - Orbit

View from above orbital plane
View from above orbital plane
View from above satellite
View from above satellite

Ground track
Ground track

The orbit data is extracted from the following two-line orbital elements,

1 22237U 92080B   20272.55000931 +.00000079 +00000-0 +76585-5 0  9993
2 22237 082.5093 081.9587 0018357 241.3726 118.5640 14.78417906500559
Epoch (UTC): 28 September 2020 13:12:00
Eccentricity: 0.0018357
inclination: 82.5093°
perigee height: 621 km
apogee height: 647 km
right ascension of ascending node: 81.9587°
argument of perigee: 241.3726°
revolutions per day: 14.78417906
mean anomaly at epoch: 118.5640°
orbit number at epoch: 50055

The dashed part of the orbit path shows where the satellite is in the earth's shadow,  

DLR